Change the Weather History Date:

Tuesday, November 27, 2012

  Actual Average (KCTY) Record (KCTY)
Temperature  
Mean Temperature 57 °F 60 °F  
Max Temperature 72 °F 72 °F 81 °F (2003)
Min Temperature 42 °F 47 °F 34 °F (2013)
Degree Days  
Heating Degree Days 8 7  
Month to date heating degree days 117  
Since 1 July heating degree days 149  
Cooling Degree Days 0 1  
Month to date cooling degree days 55  
Year to date cooling degree days 2598  
Growing Degree Days 7 (Base 50)    
Moisture  
Dew Point 49 °F    
Average Humidity 72    
Maximum Humidity 87    
Minimum Humidity 53    
Precipitation  
Precipitation 0.01 in 0.10 in 0.37 in (2004)
Month to date precipitation 2.32  
Year to date precipitation 45.55  
Sea Level Pressure  
Sea Level Pressure 30.15 in    
Wind  
Wind Speed 2 mph (West)    
Max Wind Speed 9 mph    
Max Gust Speed -    
T = Trace of Precipitation, MM = Missing Value Source: NWS Daily Summary

Daily Weather History Graph

Daily Weather History Graph

Search for Another Location

Airport or City:

Trip Planner

Search our weather history database for the weather conditions in past years. The results will help you decide how hot, cold, wet, or windy it might be!

Date:

Astronomy

Nov. 27, 2012 Rise Set
Actual Time 7:09 AM EST 5:34 PM EST
Civil Twilight 6:43 AM EST 6:00 PM EST
Nautical Twilight 6:14 AM EST 6:29 PM EST
Astronomical Twilight 5:45 AM EST 6:58 PM EST
Moon 5:03 PM EST (11/27) 6:15 AM EST (11/27)
Length of Visible Light 11h 16m
Length of Day
10h 24m
Waxing Gibbous, 99% of the Moon is Illuminated
Nov 27
Waxing Gibbous
Nov 28
Full
Dec 6
Last Quarter
Dec 13
New
Dec 20
First Quarter

Hourly Weather History & Observations

Time (EST) Temp. Dew Point Humidity Pressure Visibility Wind Dir Wind Speed Gust Speed Precip Events Conditions
12:53 AM 42.1 °F 36.0 °F 79% 30.18 in - Calm Calm - N/A   Unknown
1:53 AM 45.0 °F 37.9 °F 76% 30.17 in - Calm Calm - N/A   Unknown
2:53 AM 46.9 °F 39.0 °F 74% 30.17 in - Calm Calm - N/A   Unknown
3:53 AM 48.0 °F 39.9 °F 74% 30.15 in - Calm Calm - N/A   Unknown
4:53 AM 50.0 °F 41.0 °F 71% 30.15 in - Calm Calm - N/A   Unknown
5:53 AM 48.9 °F 41.0 °F 74% 30.15 in - Calm Calm - N/A   Unknown
6:53 AM 46.9 °F 42.1 °F 83% 30.16 in - Calm Calm - N/A   Unknown
7:53 AM 50.0 °F 43.0 °F 77% 30.16 in - Calm Calm - N/A   Unknown
8:53 AM 54.0 °F 46.0 °F 75% 30.18 in - Calm Calm - N/A   Unknown
9:53 AM 62.1 °F 53.1 °F 72% 30.20 in - Calm Calm - N/A   Unknown
10:53 AM 69.1 °F 53.1 °F 57% 30.20 in - WSW 4.6 mph - N/A   Unknown
11:53 AM 72.0 °F 55.0 °F 55% 30.17 in - West 5.8 mph - N/A   Unknown
12:53 PM 71.1 °F 53.1 °F 53% 30.14 in - WSW 8.1 mph - N/A   Unknown
1:53 PM 70.0 °F 55.9 °F 61% 30.12 in - SSW 8.1 mph - N/A   Unknown
2:53 PM 70.0 °F 57.0 °F 63% 30.11 in - WSW 9.2 mph - N/A   Unknown
3:53 PM 69.1 °F 57.0 °F 65% 30.11 in - SW 9.2 mph - N/A   Unknown
4:53 PM 66.9 °F 57.9 °F 73% 30.12 in - WSW 3.5 mph - N/A   Unknown
5:53 PM 64.9 °F 59.0 °F 81% 30.13 in - Calm Calm - N/A   Unknown
6:53 PM 64.0 °F 57.9 °F 80% 30.13 in - Calm Calm - N/A   Unknown
7:53 PM 62.1 °F 55.9 °F 80% 30.14 in - North 3.5 mph - N/A   Unknown
8:53 PM 60.1 °F 52.0 °F 75% 30.14 in - Calm Calm - 0.01 in   Unknown
9:53 PM 59.0 °F 51.1 °F 75% 30.17 in - North 4.6 mph - N/A   Unknown
10:53 PM 57.9 °F 51.1 °F 78% 30.18 in - NNW 5.8 mph - N/A   Unknown
11:53 PM 55.9 °F 52.0 °F 87% 30.19 in - North 5.8 mph - N/A   Unknown